COSMOS 1994

Satellite information

Favourite Embed

Satellite Type and Status

PAYLOADIN ORBIT

Key statistics

Satellite COSMOS 1994 at a glance.

Uptime

13415

Days in orbit

Revolutions

≈ 12.6

Per day

Orbit

LEO

Low Earth Orbit

Inclination

82.6

Latest

Satellite identification and parameters

Extended collection of information and parameters for COSMOS 1994.

Object identification

Identified? True

Debris? False

Object name: COSMOS 1994

International designator: 1989-009A

Object number (NORAD): 19785

Object ID (CCSDS): 19785

Country: COMMONWEALTH OF INDEPENDENT STATES (CIS)

Current information (Y/N): Y

RCS size: LARGE

Orbital parameters

Period: 113.894 minutes

Inclination: 82.6179 deg

SMA: 7783.233 km

Apoapsis: 1415.757 km

Periapsis: 1394.439 km

RAAN: 136.1724 deg

Eccentricy: 0.0013695

Argument of periapsis: 105.0244 deg

Mean anomaly: 317.9009 deg

Mean motion: 12.64336556 rev/day

Mean motion (dot): 0.00000052 rev/day2

B* drag term: 0.00022539 1/REarth

Two-line elements (TLE)

Creation date: Nov. 2, 2025, 3:56 p.m.

Reference frame: TEME

Reference center: EARTH

Epoch: Nov. 2, 2025, 11:33 a.m. UTC

TLE line 0: 0 COSMOS 1994

TLE line 1: 1 19785U 89009A 25306.48167704 .00000052 00000-0 22539-3 0 9990

TLE line 2: 2 19785 82.6179 136.1724 0013695 105.0244 317.9009 12.64336556694738

Live tracking on map

Real-time ground track for satellite COSMOS 1994.

In-orbit conjunctions

There are no conjunctions computed for COSMOS 1994, at the moment. Check back to stay up to date, as we update our databases every day.

Go to all conjunctions

Associated space launch

Film-return reconnaissance satellite

COSMOS 1994 was lifted into orbit during the mission ‘Soyuz U | Zenit-8 76’, on board a Soyuz U space rocket.

The launch took place on Feb. 10, 1989, 4:55 p.m. from 41/1.

For more information about the launch, click the button.

Launch to space Soyuz U | Zenit-8 76
Soyuz U | Zenit-8 76

Agency: N/A

Status: Launch Successful

Launch date: Feb. 10, 1989, 4:55 p.m. UTC

Rocket: Soyuz U

Launch pad: 41/1

Location: Plesetsk Cosmodrome, Russian Federation

...

Latest news about this satellite

There are no fresh news available about this satellite. Check back as we update our databases every day.


Newsletter sign-up

Weekly statistics, charts and insights to help you stay on top of the space industry.